Greybull, WY

7:16 AM MST on November 20, 2019 (GMT -0700)
South Big Horn County

Weather History for KGEY - October, 2019

Change the Weather History Date:

Sunday, October 20, 2019

  Actual Average Record
Temperature  
Mean Temperature 40 °F 45 °F  
Max Temperature 48 °F 58 °F 77 °F (2014)
Min Temperature 31 °F 31 °F 21 °F (1999)
Degree Days  
Heating Degree Days 25 20  
Month to date heating degree days 439 337  
Since 1 July heating degree days 614 568  
Cooling Degree Days 0 0  
Month to date cooling degree days 0 0  
Year to date cooling degree days 733 669  
Moisture  
Dew Point 33 °F    
Average Humidity 76    
Maximum Humidity 92    
Minimum Humidity 60    
Precipitation  
Precipitation 0.17 in 0.01 in 0.47 in (2007)
Month to date precipitation 0.50 0.47  
Year to date precipitation 7.82 6.80  
Sea Level Pressure  
Sea Level Pressure 29.79 in    
Wind  
Wind Speed 21 mph (NW)    
Max Wind Speed 39 mph    
Max Gust Speed 53 mph    
Visibility 10 miles    
Events Rain    
T = Trace of Precipitation, MM = Missing Value Source: NWS Daily Summary

Daily Weather History Graph

Daily Weather History Graph

Search for Another Location

Airport or City:

Astronomy

Oct. 20, 2019 Rise Set
Actual Time 7:33 AM MDT 6:19 PM MDT
Civil Twilight 7:04 AM MDT 6:49 PM MDT
Nautical Twilight 6:30 AM MDT 7:23 PM MDT
Astronomical Twilight 5:56 AM MDT 7:56 PM MDT
Moon 11:22 PM MDT 2:14 PM MDT
Length of Visible Light 11h 45m
Length of Day
10h 46m
Waning Gibbous, 58% of the Moon is Illuminated
Oct 20
Waning Gibbous
Oct 21
Last Quarter
Oct 27
New
Nov 4
First Quarter
Nov 12
Full

Hourly Weather History & Observations

Time (MDT) Temp. Windchill Dew Point Humidity Pressure Visibility Wind Dir Wind Speed Gust Speed Precip Events Conditions
12:53 AM 41.0 °F 30.7 °F 30.9 °F 67% 29.50 in 10.0 mi NNW 25.3 mph 36.8 mph N/A   Scattered Clouds
1:53 AM 41.0 °F 30.0 °F 33.1 °F 73% 29.49 in 10.0 mi NNW 28.8 mph 39.1 mph 0.00 in Rain Light Rain
2:15 AM 37.0 °F 24.5 °F 34.0 °F 89% 29.52 in 10.0 mi NW 29.9 mph 44.9 mph 0.01 in Rain Light Rain
2:33 AM 37.0 °F 24.5 °F 33.1 °F 86% 29.53 in 10.0 mi NW 29.9 mph 48.3 mph 0.02 in Rain Light Rain
2:53 AM 37.0 °F 24.3 °F 33.1 °F 86% 29.54 in 10.0 mi NW 31.1 mph 46.0 mph 0.02 in Rain Light Rain
3:53 AM 37.0 °F 23.7 °F 33.1 °F 86% 29.57 in 10.0 mi NW 34.5 mph 47.2 mph 0.00 in Rain Light Rain
4:53 AM 36.0 °F 21.8 °F 33.1 °F 89% 29.61 in 10.0 mi NW 36.8 mph 48.3 mph 0.02 in Rain Light Rain
5:53 AM 36.0 °F 22.2 °F 33.1 °F 89% 29.63 in 10.0 mi NW 34.5 mph 50.6 mph 0.02 in Rain Light Rain
6:53 AM 37.0 °F 24.1 °F 33.1 °F 86% 29.68 in 10.0 mi NW 32.2 mph 44.9 mph 0.02 in Rain Light Rain
7:53 AM 37.0 °F 24.3 °F 33.1 °F 86% 29.72 in 10.0 mi NW 31.1 mph 41.4 mph 0.02 in Rain Light Rain
8:06 AM 37.9 °F 25.5 °F 33.1 °F 83% 29.70 in 10.0 mi NW 31.1 mph 46.0 mph 0.00 in   Overcast
8:30 AM 37.9 °F 26.1 °F 33.1 °F 83% 29.72 in 10.0 mi NW 27.6 mph 40.3 mph 0.00 in Rain Light Rain
8:53 AM 37.9 °F 26.1 °F 34.0 °F 86% 29.76 in 10.0 mi NW 27.6 mph 40.3 mph 0.00 in Rain Light Rain
10:53 AM 39.9 °F 28.0 °F 34.0 °F 79% 29.85 in 10.0 mi NNW 32.2 mph 44.9 mph 0.03 in   Overcast
11:53 AM 43.0 °F 33.8 °F 36.0 °F 76% 29.85 in 10.0 mi NNW 23.0 mph 33.4 mph 0.00 in Rain Light Rain
12:53 PM 44.1 °F 33.8 °F 35.1 °F 71% 29.87 in - NNW 31.1 mph 44.9 mph 0.00 in   Unknown
1:53 PM 46.0 °F 37.4 °F 34.0 °F 63% 29.88 in 10.0 mi NNW 25.3 mph 38.0 mph N/A   Clear
2:53 PM 43.0 °F 35.1 °F 34.0 °F 71% 29.92 in 10.0 mi NW 17.3 mph 25.3 mph N/A   Clear
3:53 PM 39.0 °F 29.0 °F 34.0 °F 82% 29.97 in 10.0 mi NNW 20.7 mph 32.2 mph 0.01 in Rain Light Rain
4:14 PM 42.1 °F 33.3 °F 35.1 °F 76% 29.91 in 10.0 mi NNW 19.6 mph 28.8 mph 0.01 in   Scattered Clouds
4:53 PM 43.0 °F 32.4 °F 33.1 °F 68% 29.97 in 10.0 mi NNW 31.1 mph 36.8 mph 0.01 in   Clear
5:53 PM 39.9 °F 32.1 °F 32.0 °F 73% 30.00 in 10.0 mi NW 13.8 mph - 0.00 in   Scattered Clouds
6:53 PM 39.9 °F 33.9 °F 30.0 °F 68% 29.99 in 10.0 mi NW 9.2 mph - N/A   Partly Cloudy
7:53 PM 37.0 °F 30.4 °F 30.0 °F 76% 30.01 in 10.0 mi WNW 9.2 mph - N/A   Clear
8:53 PM 37.0 °F 29.3 °F 30.0 °F 76% 30.01 in 10.0 mi West 11.5 mph - N/A   Clear
9:53 PM 34.0 °F 28.0 °F 30.0 °F 85% 30.03 in 10.0 mi North 6.9 mph - N/A   Clear
10:53 PM 32.0 °F 27.5 °F 28.9 °F 88% 30.02 in 10.0 mi SSW 4.6 mph - N/A   Clear
11:53 PM 30.9 °F - 28.0 °F 89% 30.01 in 10.0 mi Calm Calm - N/A   Scattered Clouds